Time,TemperatureF,DewpointF,PressureIn,WindDirection,WindDirectionDegrees,WindSpeedMPH,WindSpeedGustMPH,Humidity,HourlyPrecipIn,Conditions,Clouds,dailyrainin,SolarRadiationWatts/m^2,SoftwareType,DateUTC
2013-11-14 00:04:00,37.9,24.5,25.48,SW,225,0.0,0.0,58,0.00,CLR,,0.00,8705.2,WeatherDisplay:10.37,2013-11-14 07:04:00,
2013-11-14 00:09:00,37.9,24.5,25.48,SW,225,0.0,0.0,58,0.00,CLR,,0.00,8705.2,WeatherDisplay:10.37,2013-11-14 07:09:00,
2013-11-14 00:14:00,37.4,24.4,25.48,SW,225,0.0,0.0,59,0.00,CLR,,0.00,0.0,WeatherDisplay:10.37,2013-11-14 07:14:00,
2013-11-14 00:19:00,36.9,24.3,25.48,South,180,1.2,1.2,60,0.00,CLR,,0.00,8653.5,WeatherDisplay:10.37,2013-11-14 07:19:00,
2013-11-14 00:24:00,36.5,23.9,25.47,SW,225,0.0,0.0,60,0.00,CLR,,0.00,0.0,WeatherDisplay:10.37,2013-11-14 07:24:00,
2013-11-14 00:29:00,36.5,23.9,25.48,SW,225,0.0,0.0,60,0.00,CLR,,0.00,0.0,WeatherDisplay:10.37,2013-11-14 07:29:00,
2013-11-14 00:34:00,36.1,24.0,25.48,SW,225,1.2,0.0,61,0.00,CLR,,0.00,8653.5,WeatherDisplay:10.37,2013-11-14 07:34:00,
2013-11-14 00:39:00,35.8,23.6,25.47,SW,225,2.3,2.3,61,0.00,CLR,,0.00,0.0,WeatherDisplay:10.37,2013-11-14 07:39:00,
2013-11-14 00:44:00,35.8,24.0,25.47,West,270,3.5,0.0,62,0.00,CLR,,0.00,8653.5,WeatherDisplay:10.37,2013-11-14 07:44:00,
2013-11-14 00:49:00,35.8,24.0,25.47,South,180,2.3,2.3,62,0.00,CLR,,0.00,0.0,WeatherDisplay:10.37,2013-11-14 07:49:00,
2013-11-14 00:54:00,35.8,24.0,25.47,North,0,0.0,0.0,62,0.00,CLR,,0.00,0.0,WeatherDisplay:10.37,2013-11-14 07:54:00,
2013-11-14 00:59:00,35.8,24.0,25.47,SW,225,1.2,0.0,62,0.00,CLR,,0.00,8601.7,WeatherDisplay:10.37,2013-11-14 07:59:00,
2013-11-14 01:04:00,35.8,24.0,25.47,SW,225,1.2,0.0,62,0.00,CLR,,0.00,0.0,WeatherDisplay:10.37,2013-11-14 08:04:00,
2013-11-14 01:09:00,36.3,24.1,25.47,NW,315,2.3,2.3,61,0.00,CLR,,0.00,0.0,WeatherDisplay:10.37,2013-11-14 08:09:00,
2013-11-14 01:14:00,36.5,23.9,25.47,SE,135,1.2,0.0,60,0.00,CLR,,0.00,8601.7,WeatherDisplay:10.37,2013-11-14 08:14:00,
2013-11-14 01:19:00,37.4,24.4,25.46,NE,45,1.2,0.0,59,0.00,CLR,,0.00,0.0,WeatherDisplay:10.37,2013-11-14 08:19:00,
2013-11-14 01:24:00,37.6,24.1,25.46,SE,135,0.0,0.0,58,0.00,CLR,,0.00,8601.7,WeatherDisplay:10.37,2013-11-14 08:24:00,
2013-11-14 01:29:00,37.6,24.1,25.46,SE,135,0.0,0.0,58,0.00,CLR,,0.00,8601.7,WeatherDisplay:10.37,2013-11-14 08:29:00,
2013-11-14 01:34:00,37.8,23.9,25.46,SE,135,2.3,2.3,57,0.00,CLR,,0.00,0.0,WeatherDisplay:10.37,2013-11-14 08:34:00,
2013-11-14 01:39:00,37.9,24.0,25.46,SE,135,1.2,0.0,57,0.00,CLR,,0.00,8601.7,WeatherDisplay:10.37,2013-11-14 08:39:00,
2013-11-14 01:44:00,38.1,23.8,25.45,SE,135,6.9,6.9,56,0.00,CLR,,0.00,0.0,WeatherDisplay:10.37,2013-11-14 08:44:00,
2013-11-14 01:49:00,38.1,24.2,25.45,South,180,1.2,0.0,57,0.00,CLR,,0.00,0.0,WeatherDisplay:10.37,2013-11-14 08:49:00,
2013-11-14 01:54:00,37.8,23.5,25.45,SW,225,1.2,1.2,56,0.00,CLR,,0.00,8601.5,WeatherDisplay:10.37,2013-11-14 08:54:00,
2013-11-14 01:59:00,37.8,23.5,25.45,South,180,1.2,1.2,56,0.00,CLR,,0.00,0.0,WeatherDisplay:10.37,2013-11-14 08:59:00,
2013-11-14 02:04:00,37.8,23.5,25.45,SE,135,2.3,2.3,56,0.00,CLR,,0.00,8601.5,WeatherDisplay:10.37,2013-11-14 09:04:00,
2013-11-14 02:09:00,38.1,23.8,25.45,South,180,1.2,0.0,56,0.00,CLR,,0.00,8601.5,WeatherDisplay:10.37,2013-11-14 09:09:00,
2013-11-14 02:14:00,38.1,23.8,25.45,South,180,3.5,3.5,56,0.00,CLR,,0.00,0.0,WeatherDisplay:10.37,2013-11-14 09:14:00,
2013-11-14 02:19:00,38.1,23.8,25.45,West,270,1.2,0.0,56,0.00,CLR,,0.00,8549.9,WeatherDisplay:10.37,2013-11-14 09:19:00,
2013-11-14 02:24:00,38.3,23.5,25.45,South,180,1.2,0.0,55,0.00,CLR,,0.00,0.0,WeatherDisplay:10.37,2013-11-14 09:24:00,
2013-11-14 02:29:00,38.1,23.4,25.45,SE,135,1.2,1.2,55,0.00,CLR,,0.00,0.0,WeatherDisplay:10.37,2013-11-14 09:29:00,
2013-11-14 02:34:00,37.9,23.6,25.45,South,180,1.2,0.0,56,0.00,CLR,,0.00,8549.9,WeatherDisplay:10.37,2013-11-14 09:34:00,
2013-11-14 02:39:00,37.6,23.3,25.45,South,180,1.2,0.0,56,0.00,CLR,,0.00,0.0,WeatherDisplay:10.37,2013-11-14 09:39:00,
2013-11-14 02:44:00,37.0,23.2,25.45,South,180,2.3,0.0,57,0.00,CLR,,0.00,8549.9,WeatherDisplay:10.37,2013-11-14 09:44:00,
2013-11-14 02:49:00,36.7,22.9,25.45,South,180,1.2,0.0,57,0.00,CLR,,0.00,8549.7,WeatherDisplay:10.37,2013-11-14 09:49:00,
2013-11-14 02:54:00,36.3,22.9,25.45,South,180,1.2,1.2,58,0.00,CLR,,0.00,0.0,WeatherDisplay:10.37,2013-11-14 09:54:00,
2013-11-14 02:59:00,36.1,22.8,25.44,South,180,0.0,0.0,58,0.00,CLR,,0.00,8549.7,WeatherDisplay:10.37,2013-11-14 09:59:00,
2013-11-14 03:04:00,36.1,22.8,25.45,South,180,0.0,0.0,58,0.00,CLR,,0.00,0.0,WeatherDisplay:10.37,2013-11-14 10:04:00,
2013-11-14 03:09:00,35.8,22.8,25.44,West,270,0.0,0.0,59,0.00,CLR,,0.00,0.0,WeatherDisplay:10.37,2013-11-14 10:09:00,
2013-11-14 03:14:00,35.6,22.3,25.43,SE,135,1.2,0.0,58,0.00,CLR,,0.00,8549.7,WeatherDisplay:10.37,2013-11-14 10:14:00,
2013-11-14 03:19:00,35.6,22.7,25.43,South,180,3.5,0.0,59,0.00,CLR,,0.00,0.0,WeatherDisplay:10.37,2013-11-14 10:19:00,
2013-11-14 03:24:00,35.8,22.4,25.43,SE,135,2.3,0.0,58,0.00,CLR,,0.00,8601.7,WeatherDisplay:10.37,2013-11-14 10:24:00,
2013-11-14 03:29:00,36.1,22.4,25.43,East,90,1.2,0.0,57,0.00,CLR,,0.00,8601.7,WeatherDisplay:10.37,2013-11-14 10:29:00,
2013-11-14 03:34:00,36.3,22.5,25.43,SW,225,3.5,0.0,57,0.00,CLR,,0.00,0.0,WeatherDisplay:10.37,2013-11-14 10:34:00,
2013-11-14 03:39:00,36.5,22.7,25.42,South,180,1.2,0.0,57,0.00,CLR,,0.00,8601.7,WeatherDisplay:10.37,2013-11-14 10:39:00,
2013-11-14 03:44:00,36.7,22.4,25.43,South,180,3.5,3.5,56,0.00,CLR,,0.00,0.0,WeatherDisplay:10.37,2013-11-14 10:44:00,
2013-11-14 03:49:00,36.9,22.6,25.42,SE,135,3.5,3.5,56,0.00,CLR,,0.00,8601.7,WeatherDisplay:10.37,2013-11-14 10:49:00,
2013-11-14 03:54:00,36.9,22.6,25.42,SE,135,1.2,1.2,56,0.00,CLR,,0.00,8601.7,WeatherDisplay:10.37,2013-11-14 10:54:00,
2013-11-14 03:59:00,37.0,22.4,25.42,South,180,1.2,0.0,55,0.00,CLR,,0.00,0.0,WeatherDisplay:10.37,2013-11-14 10:59:00,
2013-11-14 04:04:00,37.0,22.4,25.42,South,180,1.2,1.2,55,0.00,CLR,,0.00,8601.7,WeatherDisplay:10.37,2013-11-14 11:04:00,
2013-11-14 04:09:00,36.9,22.2,25.42,South,180,0.0,0.0,55,0.00,CLR,,0.00,8601.7,WeatherDisplay:10.37,2013-11-14 11:09:00,
2013-11-14 04:14:00,36.9,22.2,25.42,SW,225,0.0,0.0,55,0.00,CLR,,0.00,0.0,WeatherDisplay:10.37,2013-11-14 11:14:00,
2013-11-14 04:19:00,36.7,22.4,25.42,SW,225,0.0,0.0,56,0.00,CLR,,0.00,8601.7,WeatherDisplay:10.37,2013-11-14 11:19:00,
2013-11-14 04:24:00,36.5,22.3,25.42,South,180,0.0,0.0,56,0.00,CLR,,0.00,0.0,WeatherDisplay:10.37,2013-11-14 11:24:00,
2013-11-14 04:29:00,36.3,22.1,25.42,NE,45,2.3,0.0,56,0.00,CLR,,0.00,8601.7,WeatherDisplay:10.37,2013-11-14 11:29:00,
2013-11-14 04:34:00,36.1,22.4,25.42,South,180,0.0,0.0,57,0.00,CLR,,0.00,8601.7,WeatherDisplay:10.37,2013-11-14 11:34:00,
2013-11-14 04:39:00,35.8,22.4,25.41,South,180,0.0,0.0,58,0.00,CLR,,0.00,0.0,WeatherDisplay:10.37,2013-11-14 11:39:00,
2013-11-14 04:44:00,35.4,22.1,25.42,South,180,0.0,0.0,58,0.00,CLR,,0.00,8601.7,WeatherDisplay:10.37,2013-11-14 11:44:00,
2013-11-14 04:49:00,35.1,22.2,25.41,South,180,0.0,0.0,59,0.00,CLR,,0.00,8601.5,WeatherDisplay:10.37,2013-11-14 11:49:00,
2013-11-14 04:54:00,34.9,22.0,25.41,South,180,0.0,0.0,59,0.00,CLR,,0.00,0.0,WeatherDisplay:10.37,2013-11-14 11:54:00,
2013-11-14 04:59:00,34.7,22.2,25.41,SW,225,0.0,0.0,60,0.00,CLR,,0.00,8601.5,WeatherDisplay:10.37,2013-11-14 11:59:00,
2013-11-14 05:04:00,34.7,22.2,25.41,SW,225,0.0,0.0,60,0.00,CLR,,0.00,0.0,WeatherDisplay:10.37,2013-11-14 12:04:00,
2013-11-14 05:09:00,34.3,21.9,25.42,SW,225,0.0,0.0,60,0.00,CLR,,0.00,8601.5,WeatherDisplay:10.37,2013-11-14 12:09:00,
2013-11-14 05:14:00,34.0,21.9,25.41,NW,315,0.0,0.0,61,0.00,CLR,,0.00,8601.5,WeatherDisplay:10.37,2013-11-14 12:14:00,
2013-11-14 05:19:00,33.8,22.1,25.41,West,270,0.0,0.0,62,0.00,CLR,,0.00,0.0,WeatherDisplay:10.37,2013-11-14 12:19:00,
2013-11-14 05:24:00,33.6,22.0,25.42,South,180,0.0,0.0,62,0.00,CLR,,0.00,8601.7,WeatherDisplay:10.37,2013-11-14 12:24:00,
2013-11-14 05:29:00,33.4,21.8,25.41,South,180,0.0,0.0,62,0.00,CLR,,0.00,8601.7,WeatherDisplay:10.37,2013-11-14 12:29:00,
2013-11-14 05:34:00,33.3,21.6,25.41,SW,225,0.0,0.0,62,0.00,CLR,,0.00,0.0,WeatherDisplay:10.37,2013-11-14 12:34:00,
2013-11-14 05:39:00,33.3,21.6,25.41,SW,225,0.0,0.0,62,0.00,CLR,,0.00,8601.7,WeatherDisplay:10.37,2013-11-14 12:39:00,
2013-11-14 05:44:00,33.3,22.0,25.41,South,180,1.2,0.0,63,0.00,CLR,,0.00,8601.7,WeatherDisplay:10.37,2013-11-14 12:44:00,
2013-11-14 05:49:00,33.3,22.0,25.40,South,180,2.3,2.3,63,0.00,CLR,,0.00,8705.2,WeatherDisplay:10.37,2013-11-14 12:49:00,
2013-11-14 05:54:00,33.3,21.6,25.40,South,180,1.2,0.0,62,0.00,CLR,,0.00,8705.2,WeatherDisplay:10.37,2013-11-14 12:54:00,
2013-11-14 05:59:00,33.4,22.2,25.41,West,270,0.0,0.0,63,0.00,CLR,,0.00,0.0,WeatherDisplay:10.37,2013-11-14 12:59:00,
2013-11-14 06:04:00,33.4,22.2,25.40,West,270,0.0,0.0,63,0.00,CLR,,0.00,8705.2,WeatherDisplay:10.37,2013-11-14 13:04:00,
2013-11-14 06:09:00,33.3,22.4,25.39,South,180,0.0,0.0,64,0.00,CLR,,0.00,8705.2,WeatherDisplay:10.37,2013-11-14 13:09:00,
2013-11-14 06:14:00,33.1,22.2,25.40,SW,225,1.2,1.2,64,0.00,CLR,,0.00,0.0,WeatherDisplay:10.37,2013-11-14 13:14:00,
2013-11-14 06:19:00,33.1,21.8,25.39,SW,225,1.2,1.2,63,0.00,CLR,,0.00,8757.0,WeatherDisplay:10.37,2013-11-14 13:19:00,
2013-11-14 06:24:00,33.1,22.2,25.39,South,180,1.2,0.0,64,0.00,CLR,,0.00,8757.0,WeatherDisplay:10.37,2013-11-14 13:24:00,
2013-11-14 06:29:00,32.9,22.0,25.40,South,180,1.2,0.0,64,0.00,CLR,,0.00,8757.0,WeatherDisplay:10.37,2013-11-14 13:29:00,
2013-11-14 06:34:00,32.9,22.0,25.39,SW,225,1.2,0.0,64,0.00,CLR,,0.00,8757.0,WeatherDisplay:10.37,2013-11-14 13:34:00,
2013-11-14 06:39:00,32.9,22.0,25.39,South,180,1.2,1.2,64,0.00,CLR,,0.00,0.0,WeatherDisplay:10.37,2013-11-14 13:39:00,
2013-11-14 06:44:00,33.1,22.2,25.39,South,180,2.3,0.0,64,0.00,CLR,,0.00,8757.0,WeatherDisplay:10.37,2013-11-14 13:44:00,
2013-11-14 06:49:00,33.1,22.2,25.38,SW,225,1.2,0.0,64,0.00,CLR,,0.00,8808.8,WeatherDisplay:10.37,2013-11-14 13:49:00,
2013-11-14 06:54:00,33.1,22.2,25.38,SW,225,0.0,0.0,64,0.00,CLR,,0.00,0.0,WeatherDisplay:10.37,2013-11-14 13:54:00,
2013-11-14 06:59:00,32.9,22.4,25.38,NW,315,0.0,0.0,65,0.00,CLR,,0.00,8808.8,WeatherDisplay:10.37,2013-11-14 13:59:00,
2013-11-14 07:04:00,32.9,22.4,25.38,NW,315,0.0,0.0,65,0.00,CLR,,0.00,8808.8,WeatherDisplay:10.37,2013-11-14 14:04:00,
2013-11-14 07:09:00,32.9,22.4,25.38,SW,225,0.0,0.0,65,0.00,CLR,,0.00,8808.8,WeatherDisplay:10.37,2013-11-14 14:09:00,
2013-11-14 07:14:00,32.7,22.6,25.38,South,180,0.0,0.0,66,0.00,CLR,,0.00,8808.8,WeatherDisplay:10.37,2013-11-14 14:14:00,
2013-11-14 07:19:00,32.7,22.6,25.38,SE,135,1.6,1.6,66,0.00,CLR,,0.00,8912.3,WeatherDisplay:10.37,2013-11-14 14:19:00,
2013-11-14 07:24:00,32.5,22.4,25.38,South,180,1.2,1.2,66,0.00,CLR,,0.00,8912.3,WeatherDisplay:10.37,2013-11-14 14:24:00,
2013-11-14 07:29:00,32.5,22.4,25.37,SE,135,2.3,2.3,66,0.00,CLR,,0.00,8912.3,WeatherDisplay:10.37,2013-11-14 14:29:00,
2013-11-14 07:34:00,32.7,22.6,25.37,SE,135,1.2,1.2,66,0.00,CLR,,0.00,0.0,WeatherDisplay:10.37,2013-11-14 14:34:00,
2013-11-14 07:39:00,32.7,22.6,25.37,South,180,2.3,0.0,66,0.00,CLR,,0.00,8912.3,WeatherDisplay:10.37,2013-11-14 14:39:00,
2013-11-14 07:44:00,32.7,22.6,25.37,SE,135,1.2,0.0,66,0.00,CLR,,0.00,8912.3,WeatherDisplay:10.37,2013-11-14 14:44:00,
2013-11-14 07:49:00,32.7,22.6,25.37,South,180,1.2,1.2,66,0.00,CLR,,0.00,9015.9,WeatherDisplay:10.37,2013-11-14 14:49:00,
2013-11-14 07:54:00,32.5,22.8,25.37,South,180,1.2,0.0,67,0.00,CLR,,0.00,9015.9,WeatherDisplay:10.37,2013-11-14 14:54:00,
2013-11-14 07:59:00,32.4,22.6,25.36,South,180,0.0,0.0,67,0.00,CLR,,0.00,9015.9,WeatherDisplay:10.37,2013-11-14 14:59:00,
2013-11-14 08:04:00,32.4,22.6,25.37,South,180,0.0,0.0,67,0.00,CLR,,0.00,9015.9,WeatherDisplay:10.37,2013-11-14 15:04:00,
2013-11-14 08:09:00,32.2,22.4,25.36,SW,225,0.0,0.0,67,0.00,CLR,,0.00,9015.9,WeatherDisplay:10.37,2013-11-14 15:09:00,
2013-11-14 08:14:00,32.0,22.3,25.36,SW,225,0.0,0.0,67,0.00,CLR,,0.00,9015.9,WeatherDisplay:10.37,2013-11-14 15:14:00,
2013-11-14 08:19:00,32.0,22.3,25.36,SW,225,0.0,0.0,67,0.00,CLR,,0.00,9067.7,WeatherDisplay:10.37,2013-11-14 15:19:00,
2013-11-14 08:24:00,32.0,22.6,25.36,SW,225,0.0,0.0,68,0.00,CLR,,0.00,9067.7,WeatherDisplay:10.37,2013-11-14 15:24:00,
2013-11-14 08:29:00,31.8,22.5,25.36,SW,225,0.0,0.0,68,0.00,CLR,,0.00,9067.7,WeatherDisplay:10.37,2013-11-14 15:29:00,
2013-11-14 08:34:00,31.5,22.5,25.37,South,180,0.0,0.0,69,0.00,CLR,,0.00,9067.7,WeatherDisplay:10.37,2013-11-14 15:34:00,
2013-11-14 08:39:00,31.5,22.5,25.35,South,180,0.0,0.0,69,0.00,CLR,,0.00,9067.7,WeatherDisplay:10.37,2013-11-14 15:39:00,
2013-11-14 08:44:00,31.5,22.5,25.37,West,270,0.0,0.0,69,0.00,CLR,,0.00,9067.7,WeatherDisplay:10.37,2013-11-14 15:44:00,
2013-11-14 08:49:00,31.5,22.5,25.37,SW,225,0.0,0.0,69,0.00,CLR,,0.00,9067.5,WeatherDisplay:10.37,2013-11-14 15:49:00,
2013-11-14 08:54:00,31.5,22.5,25.37,SW,225,0.0,0.0,69,0.00,CLR,,0.00,9067.5,WeatherDisplay:10.37,2013-11-14 15:54:00,
2013-11-14 08:59:00,31.5,22.8,25.36,South,180,0.0,0.0,70,0.00,CLR,,0.00,9067.5,WeatherDisplay:10.37,2013-11-14 15:59:00,
2013-11-14 09:04:00,31.5,22.8,25.36,South,180,0.0,0.0,70,0.00,CLR,,0.00,9067.5,WeatherDisplay:10.37,2013-11-14 16:04:00,
2013-11-14 09:09:00,31.6,22.6,25.35,SW,225,0.0,0.0,69,0.00,CLR,,0.00,9067.5,WeatherDisplay:10.37,2013-11-14 16:09:00,
2013-11-14 09:14:00,32.0,23.3,25.35,South,180,0.0,0.0,70,0.00,CLR,,0.00,9067.5,WeatherDisplay:10.37,2013-11-14 16:14:00,
2013-11-14 09:19:00,32.0,23.3,25.35,South,180,0.0,0.0,70,0.00,CLR,,0.00,9067.7,WeatherDisplay:10.37,2013-11-14 16:19:00,
2013-11-14 09:24:00,32.0,23.3,25.35,South,180,0.0,0.0,70,0.00,CLR,,0.00,9067.7,WeatherDisplay:10.37,2013-11-14 16:24:00,
2013-11-14 09:29:00,32.2,23.1,25.35,South,180,0.0,0.0,69,0.00,CLR,,0.00,9067.7,WeatherDisplay:10.37,2013-11-14 16:29:00,
2013-11-14 09:34:00,32.4,23.3,25.34,SW,225,0.0,0.0,69,0.00,CLR,,0.00,9067.7,WeatherDisplay:10.37,2013-11-14 16:34:00,
2013-11-14 09:39:00,32.7,23.7,25.33,South,180,0.0,0.0,69,0.00,CLR,,0.00,9067.7,WeatherDisplay:10.37,2013-11-14 16:39:00,
2013-11-14 09:44:00,32.7,23.7,25.33,SW,225,0.0,0.0,69,0.00,CLR,,0.00,9067.7,WeatherDisplay:10.37,2013-11-14 16:44:00,
2013-11-14 09:49:00,32.9,23.8,25.34,SW,225,0.0,0.0,69,0.00,CLR,,0.00,9015.9,WeatherDisplay:10.37,2013-11-14 16:49:00,
2013-11-14 09:54:00,33.1,24.0,25.34,SW,225,0.0,0.0,69,0.00,CLR,,0.00,9015.9,WeatherDisplay:10.37,2013-11-14 16:54:00,
2013-11-14 09:59:00,33.1,24.0,25.34,SW,225,0.0,0.0,69,0.00,CLR,,0.00,9015.9,WeatherDisplay:10.37,2013-11-14 16:59:00,
2013-11-14 10:04:00,33.1,24.0,25.35,SW,225,0.0,0.0,69,0.00,OVC,,0.00,9015.9,WeatherDisplay:10.37,2013-11-14 17:04:00,
2013-11-14 10:09:00,33.4,24.4,25.34,SW,225,0.0,0.0,69,0.00,OVC,,0.00,9015.9,WeatherDisplay:10.37,2013-11-14 17:09:00,
2013-11-14 10:14:00,33.4,24.4,25.34,SW,225,0.0,0.0,69,0.00,OVC,,0.00,9015.9,WeatherDisplay:10.37,2013-11-14 17:14:00,
2013-11-14 10:19:00,33.6,24.5,25.34,SW,225,0.0,0.0,69,0.00,OVC,,0.00,9015.7,WeatherDisplay:10.37,2013-11-14 17:19:00,
2013-11-14 10:24:00,33.8,24.7,25.33,SW,225,0.0,0.0,69,0.00,OVC,,0.00,9015.7,WeatherDisplay:10.37,2013-11-14 17:24:00,
2013-11-14 10:29:00,34.0,24.9,25.33,SW,225,0.0,0.0,69,0.00,OVC,,0.00,9015.7,WeatherDisplay:10.37,2013-11-14 17:29:00,
2013-11-14 10:34:00,34.3,25.2,25.33,SW,225,0.0,0.0,69,0.00,OVC,,0.00,9015.7,WeatherDisplay:10.37,2013-11-14 17:34:00,
2013-11-14 10:39:00,34.5,25.4,25.33,SW,225,0.0,0.0,69,0.00,OVC,,0.00,9015.7,WeatherDisplay:10.37,2013-11-14 17:39:00,
2013-11-14 10:44:00,34.7,25.6,25.33,South,180,0.0,0.0,69,0.00,OVC,,0.00,9015.7,WeatherDisplay:10.37,2013-11-14 17:44:00,
2013-11-14 10:49:00,34.9,25.4,25.32,South,180,0.0,0.0,68,0.00,OVC,,0.00,8963.9,WeatherDisplay:10.37,2013-11-14 17:49:00,
2013-11-14 10:54:00,35.1,25.6,25.32,SW,225,0.0,0.0,68,0.00,OVC,,0.00,8963.9,WeatherDisplay:10.37,2013-11-14 17:54:00,
2013-11-14 10:59:00,35.6,25.7,25.32,SW,225,0.0,0.0,67,0.00,OVC,,0.00,8963.9,WeatherDisplay:10.37,2013-11-14 17:59:00,
2013-11-14 11:04:00,35.6,25.7,25.32,SW,225,0.0,0.0,67,0.00,OVC,,0.00,8963.9,WeatherDisplay:10.37,2013-11-14 18:04:00,
2013-11-14 11:09:00,36.5,26.6,25.32,SW,225,0.0,0.0,67,0.00,OVC,,0.00,8963.9,WeatherDisplay:10.37,2013-11-14 18:09:00,
2013-11-14 11:14:00,36.9,26.6,25.32,SW,225,0.0,0.0,66,0.00,OVC,,0.00,8963.9,WeatherDisplay:10.37,2013-11-14 18:14:00,
2013-11-14 11:19:00,37.4,27.1,25.31,SW,225,0.0,0.0,66,0.00,OVC,,0.00,8912.5,WeatherDisplay:10.37,2013-11-14 18:19:00,
2013-11-14 11:24:00,37.8,27.0,25.31,SW,225,0.0,0.0,65,0.00,OVC,,0.00,8912.5,WeatherDisplay:10.37,2013-11-14 18:24:00,
2013-11-14 11:29:00,37.9,27.2,25.31,SW,225,0.0,0.0,65,0.00,OVC,,0.00,8912.5,WeatherDisplay:10.37,2013-11-14 18:29:00,
2013-11-14 11:34:00,38.7,27.1,25.30,SW,225,0.0,0.0,63,0.00,OVC,,0.00,8912.5,WeatherDisplay:10.37,2013-11-14 18:34:00,
2013-11-14 11:39:00,39.2,26.5,25.30,SW,225,0.0,0.0,60,0.00,OVC,,0.00,8912.5,WeatherDisplay:10.37,2013-11-14 18:39:00,
2013-11-14 11:44:00,40.6,27.0,25.30,North,0,0.0,0.0,58,0.00,OVC,,0.00,8912.5,WeatherDisplay:10.37,2013-11-14 18:44:00,
2013-11-14 11:49:00,41.2,25.8,25.29,North,0,0.0,0.0,54,0.00,OVC,,0.00,9016.3,WeatherDisplay:10.37,2013-11-14 18:49:00,
2013-11-14 11:54:00,41.9,26.0,25.29,North,0,0.0,0.0,53,0.00,OVC,,0.00,9016.3,WeatherDisplay:10.37,2013-11-14 18:54:00,
2013-11-14 11:59:00,42.4,25.1,25.28,North,0,0.0,0.0,50,0.00,OVC,,0.00,9016.3,WeatherDisplay:10.37,2013-11-14 18:59:00,
2013-11-14 12:04:00,42.6,24.3,25.28,NE,45,2.3,0.0,48,0.00,OVC,,0.00,9016.3,WeatherDisplay:10.37,2013-11-14 19:04:00,
2013-11-14 12:09:00,42.6,24.3,25.27,NE,45,2.3,0.0,48,0.00,OVC,,0.00,9016.3,WeatherDisplay:10.37,2013-11-14 19:09:00,
2013-11-14 12:14:00,43.2,23.2,25.27,North,0,2.3,2.3,45,0.00,OVC,,0.00,9016.3,WeatherDisplay:10.37,2013-11-14 19:14:00,
2013-11-14 12:19:00,43.9,23.4,25.27,East,90,4.6,4.6,44,0.00,OVC,,0.00,9119.8,WeatherDisplay:10.37,2013-11-14 19:19:00,
2013-11-14 12:24:00,44.2,22.6,25.27,NNW,338,5.8,5.8,42,0.00,OVC,,0.00,9119.8,WeatherDisplay:10.37,2013-11-14 19:24:00,
2013-11-14 12:29:00,44.6,22.3,25.27,North,0,3.5,3.5,41,0.00,OVC,,0.00,9119.8,WeatherDisplay:10.37,2013-11-14 19:29:00,
2013-11-14 12:34:00,44.8,23.1,25.26,North,0,3.5,3.5,42,0.00,OVC,,0.00,9119.8,WeatherDisplay:10.37,2013-11-14 19:34:00,
2013-11-14 12:39:00,44.8,21.9,25.26,North,0,3.5,3.5,40,0.00,OVC,,0.00,9119.8,WeatherDisplay:10.37,2013-11-14 19:39:00,
2013-11-14 12:44:00,44.8,21.9,25.25,North,0,3.5,3.5,40,0.00,OVC,,0.00,9119.8,WeatherDisplay:10.37,2013-11-14 19:44:00,
2013-11-14 12:49:00,44.8,21.9,25.25,North,0,3.5,3.5,40,0.00,OVC,,0.00,9119.8,WeatherDisplay:10.37,2013-11-14 19:49:00,
2013-11-14 12:54:00,45.1,22.2,25.25,East,90,1.2,0.0,40,0.00,OVC,,0.00,9171.6,WeatherDisplay:10.37,2013-11-14 19:54:00,
2013-11-14 12:59:00,45.1,22.2,25.24,East,90,1.2,0.0,40,0.00,OVC,,0.00,9171.6,WeatherDisplay:10.37,2013-11-14 19:59:00,
2013-11-14 13:04:00,45.1,22.2,25.24,East,90,1.2,0.0,40,0.00,OVC,,0.00,9171.6,WeatherDisplay:10.37,2013-11-14 20:04:00,
2013-11-14 13:09:00,45.0,20.8,25.23,East,90,2.3,2.3,38,0.00,OVC,,0.00,9171.6,WeatherDisplay:10.37,2013-11-14 20:09:00,
2013-11-14 13:14:00,45.0,20.8,25.23,East,90,2.3,2.3,38,0.00,OVC,,0.00,9171.6,WeatherDisplay:10.37,2013-11-14 20:14:00,
2013-11-14 13:19:00,45.1,21.0,25.23,North,0,4.6,4.6,38,0.00,OVC,,0.00,9119.4,WeatherDisplay:10.37,2013-11-14 20:19:00,
2013-11-14 13:24:00,45.5,20.7,25.23,SW,225,4.6,4.6,37,0.00,OVC,,0.00,9119.4,WeatherDisplay:10.37,2013-11-14 20:24:00,
2013-11-14 13:29:00,45.5,20.7,25.23,North,0,3.5,3.5,37,0.00,OVC,,0.00,9119.4,WeatherDisplay:10.37,2013-11-14 20:29:00,
2013-11-14 13:34:00,45.7,20.2,25.23,North,0,4.6,4.6,36,0.00,OVC,,0.00,9119.4,WeatherDisplay:10.37,2013-11-14 20:34:00,
2013-11-14 13:39:00,45.7,20.2,25.22,NE,45,4.6,4.6,36,0.00,OVC,,0.00,9119.4,WeatherDisplay:10.37,2013-11-14 20:39:00,
2013-11-14 13:44:00,45.7,19.6,25.22,North,0,4.6,4.6,35,0.00,OVC,,0.00,9119.4,WeatherDisplay:10.37,2013-11-14 20:44:00,
2013-11-14 13:49:00,45.9,19.7,25.22,NW,315,5.8,5.8,35,0.00,OVC,,0.00,9067.7,WeatherDisplay:10.37,2013-11-14 20:49:00,
2013-11-14 13:54:00,46.0,19.2,25.21,North,0,4.6,4.6,34,0.00,OVC,,0.00,9067.7,WeatherDisplay:10.37,2013-11-14 20:54:00,
2013-11-14 13:59:00,46.2,18.7,25.21,North,0,3.5,3.5,33,0.00,OVC,,0.00,9067.7,WeatherDisplay:10.37,2013-11-14 20:59:00,
2013-11-14 14:04:00,46.2,18.7,25.21,North,0,3.5,3.5,33,0.00,OVC,,0.00,9067.7,WeatherDisplay:10.37,2013-11-14 21:04:00,
2013-11-14 14:09:00,47.1,19.5,25.20,North,0,3.5,3.5,33,0.00,OVC,,0.00,9067.7,WeatherDisplay:10.37,2013-11-14 21:09:00,
2013-11-14 14:14:00,47.3,18.9,25.20,NNE,22,5.8,5.8,32,0.00,OVC,,0.00,9067.7,WeatherDisplay:10.37,2013-11-14 21:14:00,
2013-11-14 14:19:00,46.9,18.6,25.20,NW,315,4.6,4.6,32,0.00,OVC,,0.00,9067.7,WeatherDisplay:10.37,2013-11-14 21:19:00,
2013-11-14 14:24:00,46.9,19.3,25.20,NE,45,3.5,3.5,33,0.00,OVC,,0.00,9067.7,WeatherDisplay:10.37,2013-11-14 21:24:00,
2013-11-14 14:29:00,47.1,20.2,25.19,NW,315,0.0,0.0,34,0.00,OVC,,0.00,9067.7,WeatherDisplay:10.37,2013-11-14 21:29:00,
2013-11-14 14:34:00,47.1,20.2,25.19,NW,315,0.0,0.0,34,0.00,OVC,,0.00,9067.7,WeatherDisplay:10.37,2013-11-14 21:34:00,
2013-11-14 14:39:00,47.3,19.6,25.19,NW,315,3.5,3.5,33,0.00,OVC,,0.00,9067.7,WeatherDisplay:10.37,2013-11-14 21:39:00,
2013-11-14 14:44:00,47.3,17.4,25.19,North,0,4.6,4.6,30,0.00,OVC,,0.00,9067.7,WeatherDisplay:10.37,2013-11-14 21:44:00,
2013-11-14 14:49:00,46.9,18.6,25.19,North,0,0.0,0.0,32,0.00,OVC,,0.00,9015.9,WeatherDisplay:10.37,2013-11-14 21:49:00,
2013-11-14 14:54:00,46.9,18.6,25.19,NW,315,2.3,2.3,32,0.00,OVC,,0.00,9015.9,WeatherDisplay:10.37,2013-11-14 21:54:00,
2013-11-14 14:59:00,46.9,18.6,25.19,North,0,3.5,3.5,32,0.00,OVC,,0.00,9015.9,WeatherDisplay:10.37,2013-11-14 21:59:00,
2013-11-14 15:04:00,46.9,18.6,25.19,North,0,3.5,3.5,32,0.00,OVC,,0.00,9015.9,WeatherDisplay:10.37,2013-11-14 22:04:00,
2013-11-14 15:09:00,46.8,19.1,25.19,North,0,3.5,3.5,33,0.00,OVC,,0.00,9015.9,WeatherDisplay:10.37,2013-11-14 22:09:00,
2013-11-14 15:14:00,46.4,19.5,25.18,ENE,68,5.8,5.8,34,0.00,OVC,,0.00,9015.9,WeatherDisplay:10.37,2013-11-14 22:14:00,
2013-11-14 15:19:00,46.2,19.4,25.18,NE,45,5.8,5.8,34,0.00,OVC,,0.00,8964.3,WeatherDisplay:10.37,2013-11-14 22:19:00,
2013-11-14 15:24:00,45.7,19.6,25.19,North,0,3.5,3.5,35,0.00,OVC,,0.00,8964.3,WeatherDisplay:10.37,2013-11-14 22:24:00,
2013-11-14 15:29:00,45.3,20.5,25.19,North,0,5.8,5.8,37,0.00,OVC,,0.00,8964.3,WeatherDisplay:10.37,2013-11-14 22:29:00,
2013-11-14 15:34:00,45.0,20.2,25.18,North,0,3.5,3.5,37,0.00,CLR,,0.00,8964.3,WeatherDisplay:10.37,2013-11-14 22:34:00,
2013-11-14 15:39:00,44.8,20.7,25.18,North,0,1.2,0.0,38,0.00,CLR,,0.00,8964.3,WeatherDisplay:10.37,2013-11-14 22:39:00,
2013-11-14 15:44:00,44.6,21.1,25.18,West,270,1.2,1.2,39,0.00,CLR,,0.00,8964.3,WeatherDisplay:10.37,2013-11-14 22:44:00,
2013-11-14 15:49:00,44.2,21.4,25.18,SW,225,0.0,0.0,40,0.00,CLR,,0.00,8912.3,WeatherDisplay:10.37,2013-11-14 22:49:00,
2013-11-14 15:54:00,44.2,21.4,25.18,SW,225,0.0,0.0,40,0.00,CLR,,0.00,8912.3,WeatherDisplay:10.37,2013-11-14 22:54:00,
2013-11-14 15:59:00,44.2,21.4,25.18,SW,225,0.0,0.0,40,0.00,CLR,,0.00,57.0,WeatherDisplay:10.37,2013-11-14 22:59:00,
2013-11-14 16:04:00,44.2,21.4,25.18,SW,225,0.0,0.0,40,0.00,CLR,,0.00,57.0,WeatherDisplay:10.37,2013-11-14 23:04:00,
2013-11-14 16:09:00,44.2,21.4,25.18,SW,225,0.0,0.0,40,0.00,FEW,,0.00,57.0,WeatherDisplay:10.37,2013-11-14 23:09:00,
2013-11-14 16:14:00,43.0,20.9,25.17,South,180,0.0,0.0,41,0.00,CLR,,0.00,89.0,WeatherDisplay:10.37,2013-11-14 23:14:00,
2013-11-14 16:19:00,43.0,20.9,25.18,South,180,0.0,0.0,41,0.00,CLR,,0.00,99.0,WeatherDisplay:10.37,2013-11-14 23:19:00,
2013-11-14 16:24:00,43.0,20.9,25.18,South,180,0.0,0.0,41,0.00,CLR,,0.00,99.0,WeatherDisplay:10.37,2013-11-14 23:24:00,
2013-11-14 16:29:00,43.0,20.9,25.18,South,180,0.0,0.0,41,0.00,CLR,,0.00,99.0,WeatherDisplay:10.37,2013-11-14 23:29:00,
2013-11-14 16:34:00,43.0,20.9,25.18,South,180,0.0,0.0,41,0.00,CLR,,0.00,99.0,WeatherDisplay:10.37,2013-11-14 23:34:00,
2013-11-14 16:39:00,41.2,21.4,25.17,South,180,1.2,0.0,45,0.00,CLR,,0.00,141.0,WeatherDisplay:10.37,2013-11-14 23:39:00,
2013-11-14 16:44:00,40.5,21.3,25.17,SW,225,2.3,2.3,46,0.00,CLR,,0.00,151.0,WeatherDisplay:10.37,2013-11-14 23:44:00,
2013-11-14 16:49:00,39.9,20.8,25.17,SW,225,0.0,0.0,46,0.00,CLR,,0.00,8809.0,WeatherDisplay:10.37,2013-11-14 23:49:00,
2013-11-14 16:54:00,39.4,20.8,25.17,SW,225,0.0,0.0,47,0.00,CLR,,0.00,172.0,WeatherDisplay:10.37,2013-11-14 23:54:00,
2013-11-14 16:59:00,38.7,20.6,25.18,SW,225,0.0,0.0,48,0.00,CLR,,0.00,182.0,WeatherDisplay:10.37,2013-11-14 23:59:00,
2013-11-14 17:04:00,38.5,20.5,25.17,SW,225,0.0,0.0,48,0.00,CLR,,0.00,8809.0,WeatherDisplay:10.37,2013-11-15 00:04:00,
2013-11-14 17:09:00,36.9,20.4,25.17,SW,225,0.0,0.0,51,0.00,CLR,,0.00,203.0,WeatherDisplay:10.37,2013-11-15 00:09:00,
2013-11-14 17:14:00,36.3,20.4,25.17,South,180,0.0,0.0,52,0.00,CLR,,0.00,8809.0,WeatherDisplay:10.37,2013-11-15 00:14:00,
2013-11-14 17:19:00,35.8,19.9,25.17,South,180,0.0,0.0,52,0.00,CLR,,0.00,223.0,WeatherDisplay:10.37,2013-11-15 00:19:00,
2013-11-14 17:24:00,35.4,19.5,25.17,South,180,0.0,0.0,52,0.00,CLR,,0.00,233.0,WeatherDisplay:10.37,2013-11-15 00:24:00,
2013-11-14 17:29:00,34.9,19.5,25.17,South,180,0.0,0.0,53,0.00,CLR,,0.00,8757.2,WeatherDisplay:10.37,2013-11-15 00:29:00,
2013-11-14 17:34:00,34.5,20.0,25.17,South,180,1.2,0.0,55,0.00,CLR,,0.00,252.0,WeatherDisplay:10.37,2013-11-15 00:34:00,
2013-11-14 17:39:00,34.2,19.7,25.17,West,270,0.0,0.0,55,0.00,CLR,,0.00,262.0,WeatherDisplay:10.37,2013-11-15 00:39:00,
2013-11-14 17:44:00,33.8,19.7,25.17,SE,135,0.0,0.0,56,0.00,CLR,,0.00,8757.2,WeatherDisplay:10.37,2013-11-15 00:44:00,
2013-11-14 17:49:00,33.4,19.8,25.17,South,180,0.0,0.0,57,0.00,CLR,,0.00,280.0,WeatherDisplay:10.37,2013-11-15 00:49:00,
2013-11-14 17:54:00,33.1,19.5,25.17,South,180,0.0,0.0,57,0.00,CLR,,0.00,8757.2,WeatherDisplay:10.37,2013-11-15 00:54:00,
2013-11-14 17:59:00,32.7,19.6,25.17,South,180,0.0,0.0,58,0.00,CLR,,0.00,8757.2,WeatherDisplay:10.37,2013-11-15 00:59:00,
2013-11-14 18:04:00,32.7,19.6,25.17,South,180,0.0,0.0,58,0.00,CLR,,0.00,0.0,WeatherDisplay:10.37,2013-11-15 01:04:00,
2013-11-14 18:09:00,32.4,20.0,25.16,South,180,0.0,0.0,60,0.00,CLR,,0.00,8757.2,WeatherDisplay:10.37,2013-11-15 01:09:00,
2013-11-14 18:14:00,32.0,19.7,25.16,South,180,0.0,0.0,60,0.00,CLR,,0.00,0.0,WeatherDisplay:10.37,2013-11-15 01:14:00,
2013-11-14 18:19:00,31.6,19.7,25.16,South,180,0.0,0.0,61,0.00,CLR,,0.00,0.0,WeatherDisplay:10.37,2013-11-15 01:19:00,
2013-11-14 18:24:00,31.3,19.4,25.16,South,180,0.0,0.0,61,0.00,CLR,,0.00,8809.0,WeatherDisplay:10.37,2013-11-15 01:24:00,
2013-11-14 18:30:00,31.1,19.6,25.16,South,180,0.0,0.0,62,0.00,CLR,,0.00,8809.0,WeatherDisplay:10.37,2013-11-15 01:30:00,
2013-11-14 18:35:00,30.7,19.2,25.16,South,180,0.0,0.0,62,0.00,CLR,,0.00,8809.0,WeatherDisplay:10.37,2013-11-15 01:35:00,
2013-11-14 18:40:00,30.6,19.1,25.16,South,180,0.0,0.0,62,0.00,CLR,,0.00,8809.0,WeatherDisplay:10.37,2013-11-15 01:40:00,
2013-11-14 18:45:00,30.2,18.7,25.16,SW,225,0.0,0.0,62,0.00,CLR,,0.00,8809.0,WeatherDisplay:10.37,2013-11-15 01:45:00,
2013-11-14 18:50:00,30.0,18.9,25.16,SW,225,1.2,0.0,63,0.00,CLR,,0.00,8809.0,WeatherDisplay:10.37,2013-11-15 01:50:00,
2013-11-14 18:55:00,29.7,19.0,25.17,SW,225,0.0,0.0,64,0.00,CLR,,0.00,8809.0,WeatherDisplay:10.37,2013-11-15 01:55:00,
2013-11-14 19:00:00,29.7,19.0,25.17,South,180,1.6,1.6,64,0.00,CLR,,0.00,8809.0,WeatherDisplay:10.37,2013-11-15 02:00:00,
2013-11-14 19:05:00,29.7,19.0,25.17,South,180,1.2,1.2,64,0.00,CLR,,0.00,8809.0,WeatherDisplay:10.37,2013-11-15 02:05:00,
2013-11-14 19:10:00,28.9,18.6,25.17,South,180,1.2,0.0,65,0.00,CLR,,0.00,0.0,WeatherDisplay:10.37,2013-11-15 02:10:00,
2013-11-14 19:15:00,28.6,18.7,25.16,SE,135,1.2,0.0,66,0.00,CLR,,0.00,0.0,WeatherDisplay:10.37,2013-11-15 02:15:00,
2013-11-14 19:20:00,28.4,18.5,25.17,SW,225,2.3,2.3,66,0.00,CLR,,0.00,0.0,WeatherDisplay:10.37,2013-11-15 02:20:00,
2013-11-14 19:25:00,28.2,18.3,25.17,South,180,3.5,3.5,66,0.00,CLR,,0.00,0.0,WeatherDisplay:10.37,2013-11-15 02:25:00,
2013-11-14 19:31:00,28.4,18.8,25.17,South,180,1.2,0.0,67,0.00,CLR,,0.00,0.0,WeatherDisplay:10.37,2013-11-15 02:31:00,
2013-11-14 19:36:00,28.4,18.8,25.16,SW,225,1.2,1.2,67,0.00,CLR,,0.00,8860.8,WeatherDisplay:10.37,2013-11-15 02:36:00,
2013-11-14 19:41:00,28.2,18.7,25.16,SW,225,1.2,0.0,67,0.00,CLR,,0.00,8860.8,WeatherDisplay:10.37,2013-11-15 02:41:00,
2013-11-14 19:46:00,28.0,18.5,25.16,South,180,0.0,0.0,67,0.00,CLR,,0.00,0.0,WeatherDisplay:10.37,2013-11-15 02:46:00,
2013-11-14 19:51:00,27.9,18.3,25.16,SW,225,0.0,0.0,67,0.00,CLR,,0.00,8912.5,WeatherDisplay:10.37,2013-11-15 02:51:00,
2013-11-14 19:56:00,27.9,18.3,25.16,South,180,0.0,1.6,67,0.00,CLR,,0.00,8912.5,WeatherDisplay:10.37,2013-11-15 02:56:00,
2013-11-14 20:01:00,27.7,18.5,25.16,SE,135,2.3,2.3,68,0.00,CLR,,0.00,8912.5,WeatherDisplay:10.37,2013-11-15 03:01:00,
2013-11-14 20:06:00,27.7,18.5,25.16,SE,135,2.3,2.3,68,0.00,CLR,,0.00,8912.5,WeatherDisplay:10.37,2013-11-15 03:06:00,
2013-11-14 20:11:00,27.5,18.3,25.16,SE,135,2.3,2.3,68,0.00,CLR,,0.00,8912.5,WeatherDisplay:10.37,2013-11-15 03:11:00,
2013-11-14 20:16:00,27.3,18.5,25.16,South,180,2.3,0.0,69,0.00,CLR,,0.00,0.0,WeatherDisplay:10.37,2013-11-15 03:16:00,
2013-11-14 20:21:00,27.1,18.3,25.16,South,180,1.2,0.0,69,0.00,CLR,,0.00,0.0,WeatherDisplay:10.37,2013-11-15 03:21:00,
2013-11-14 20:26:00,27.1,18.6,25.16,South,180,2.3,2.3,70,0.00,CLR,,0.00,0.0,WeatherDisplay:10.37,2013-11-15 03:26:00,
2013-11-14 20:31:00,27.1,18.6,25.15,South,180,1.6,0.0,70,0.00,CLR,,0.00,8912.5,WeatherDisplay:10.37,2013-11-15 03:31:00,
2013-11-14 20:36:00,27.0,18.5,25.15,South,180,1.2,1.2,70,0.00,CLR,,0.00,0.0,WeatherDisplay:10.37,2013-11-15 03:36:00,
2013-11-14 20:41:00,26.8,18.3,25.14,South,180,0.0,0.0,70,0.00,CLR,,0.00,0.0,WeatherDisplay:10.37,2013-11-15 03:41:00,
2013-11-14 20:46:00,26.6,18.1,25.15,South,180,0.0,0.0,70,0.00,CLR,,0.00,0.0,WeatherDisplay:10.37,2013-11-15 03:46:00,
2013-11-14 20:51:00,26.2,17.8,25.14,South,180,0.0,0.0,70,0.00,CLR,,0.00,0.0,WeatherDisplay:10.37,2013-11-15 03:51:00,
2013-11-14 20:56:00,26.1,17.9,25.14,South,180,0.0,0.0,71,0.00,CLR,,0.00,0.0,WeatherDisplay:10.37,2013-11-15 03:56:00,
2013-11-14 21:01:00,26.1,17.9,25.14,South,180,0.0,0.0,71,0.00,CLR,,0.00,8912.5,WeatherDisplay:10.37,2013-11-15 04:01:00,
2013-11-14 21:06:00,26.1,17.9,25.14,South,180,0.0,0.0,71,0.00,CLR,,0.00,0.0,WeatherDisplay:10.37,2013-11-15 04:06:00,
2013-11-14 21:11:00,26.2,18.1,25.15,South,180,2.3,2.3,71,0.00,CLR,,0.00,0.0,WeatherDisplay:10.37,2013-11-15 04:11:00,
2013-11-14 21:16:00,26.2,18.1,25.14,South,180,1.2,1.2,71,0.00,CLR,,0.00,8912.5,WeatherDisplay:10.37,2013-11-15 04:16:00,
2013-11-14 21:22:00,26.2,18.1,25.14,South,180,1.2,0.0,71,0.00,CLR,,0.00,8860.8,WeatherDisplay:10.37,2013-11-15 04:22:00,
2013-11-14 21:27:00,26.2,18.4,25.14,South,180,2.3,2.3,72,0.00,CLR,,0.00,8860.8,WeatherDisplay:10.37,2013-11-15 04:27:00,
2013-11-14 21:32:00,25.9,18.1,25.13,South,180,1.2,0.0,72,0.00,CLR,,0.00,8860.8,WeatherDisplay:10.37,2013-11-15 04:32:00,
2013-11-14 21:37:00,25.7,18.2,25.14,SW,225,2.3,2.3,73,0.00,CLR,,0.00,8860.8,WeatherDisplay:10.37,2013-11-15 04:37:00,
2013-11-14 21:42:00,25.5,18.1,25.14,South,180,1.2,1.2,73,0.00,CLR,,0.00,8860.8,WeatherDisplay:10.37,2013-11-15 04:42:00,
2013-11-14 21:47:00,25.5,18.1,25.14,South,180,1.2,0.0,73,0.00,CLR,,0.00,8860.8,WeatherDisplay:10.37,2013-11-15 04:47:00,
2013-11-14 21:52:00,25.5,18.4,25.13,South,180,1.2,0.0,74,0.00,CLR,,0.00,8860.8,WeatherDisplay:10.37,2013-11-15 04:52:00,
2013-11-14 21:57:00,25.5,18.4,25.14,South,180,0.0,0.0,74,0.00,CLR,,0.00,8860.8,WeatherDisplay:10.37,2013-11-15 04:57:00,
2013-11-14 22:01:00,25.3,18.2,25.13,South,180,0.0,0.0,74,0.00,CLR,,0.00,8860.8,WeatherDisplay:10.37,2013-11-15 05:01:00,
2013-11-14 22:02:00,25.3,18.2,25.14,South,180,0.0,0.0,74,0.00,CLR,,0.00,0.0,WeatherDisplay:10.37,2013-11-15 05:02:00,
2013-11-14 22:03:00,25.3,18.2,25.14,South,180,0.0,0.0,74,0.00,CLR,,0.00,8860.8,WeatherDisplay:10.37,2013-11-15 05:03:00,
2013-11-14 22:04:00,25.3,18.2,25.13,South,180,0.0,0.0,74,0.00,CLR,,0.00,0.0,WeatherDisplay:10.37,2013-11-15 05:04:00,
2013-11-14 22:07:00,25.5,18.7,25.14,South,180,0.0,0.0,75,0.00,CLR,,0.00,8860.8,WeatherDisplay:10.37,2013-11-15 05:07:00,
2013-11-14 22:12:00,25.5,18.4,25.13,South,180,0.0,0.0,74,0.00,CLR,,0.00,8860.8,WeatherDisplay:10.37,2013-11-15 05:12:00,
2013-11-14 22:17:00,27.1,24.9,25.50,SW,225,0.0,2.2,91,0.00,CLR,,0.05,8809.0,WeatherDisplay:10.37,2013-11-15 05:17:00,
2013-11-14 22:22:00,25.5,18.4,25.13,South,180,0.0,0.0,74,0.05,RA,,0.05,8809.0,WeatherDisplay:10.37,2013-11-15 05:22:00,
2013-11-14 22:27:00,25.3,18.5,25.13,SE,135,0.0,0.0,75,0.05,RA,,0.05,8809.0,WeatherDisplay:10.37,2013-11-15 05:27:00,
2013-11-14 22:32:00,25.3,18.5,25.13,South,180,3.5,3.5,75,0.05,CLR,,0.05,8809.0,WeatherDisplay:10.37,2013-11-15 05:32:00,
2013-11-14 22:37:00,25.3,18.5,25.12,South,180,3.5,3.5,75,0.05,CLR,,0.05,8809.0,WeatherDisplay:10.37,2013-11-15 05:37:00,
2013-11-14 22:42:00,25.3,18.8,25.12,SW,225,3.5,0.0,76,0.05,CLR,,0.05,8809.0,WeatherDisplay:10.37,2013-11-15 05:42:00,
2013-11-14 22:47:00,25.2,18.7,25.12,SW,225,1.2,0.0,76,0.05,CLR,,0.05,8809.0,WeatherDisplay:10.37,2013-11-15 05:47:00,
2013-11-14 22:52:00,25.0,18.5,25.12,South,180,0.0,0.0,76,0.05,CLR,,0.05,8809.2,WeatherDisplay:10.37,2013-11-15 05:52:00,
2013-11-14 22:57:00,24.8,18.6,25.12,South,180,1.2,0.0,77,0.05,CLR,,0.05,8809.2,WeatherDisplay:10.37,2013-11-15 05:57:00,
2013-11-14 23:02:00,24.8,18.6,25.12,SE,135,0.0,0.0,77,0.05,CLR,,0.05,8809.2,WeatherDisplay:10.37,2013-11-15 06:02:00,
2013-11-14 23:07:00,25.0,18.8,25.12,West,270,1.2,0.0,77,0.05,CLR,,0.05,8809.2,WeatherDisplay:10.37,2013-11-15 06:07:00,
2013-11-14 23:12:00,25.0,18.8,25.12,NW,315,0.0,0.0,77,0.05,CLR,,0.05,8809.2,WeatherDisplay:10.37,2013-11-15 06:12:00,
2013-11-14 23:17:00,25.0,19.1,25.12,SW,225,1.2,1.2,78,0.05,CLR,,0.05,8809.2,WeatherDisplay:10.37,2013-11-15 06:17:00,
2013-11-14 23:22:00,25.0,19.1,25.12,SW,225,1.2,1.2,78,0.00,CLR,,0.05,8809.2,WeatherDisplay:10.37,2013-11-15 06:22:00,
2013-11-14 23:27:00,25.2,19.3,25.11,SW,225,1.2,0.0,78,0.00,CLR,,0.05,8809.2,WeatherDisplay:10.37,2013-11-15 06:27:00,
2013-11-14 23:32:00,25.3,19.4,25.11,South,180,2.3,2.3,78,0.00,CLR,,0.05,8809.2,WeatherDisplay:10.37,2013-11-15 06:32:00,
2013-11-14 23:37:00,25.3,19.4,25.11,SE,135,2.3,2.3,78,0.00,CLR,,0.05,8809.2,WeatherDisplay:10.37,2013-11-15 06:37:00,
2013-11-14 23:42:00,25.5,19.6,25.11,South,180,0.0,0.0,78,0.00,CLR,,0.05,8809.2,WeatherDisplay:10.37,2013-11-15 06:42:00,
2013-11-14 23:47:00,25.3,19.4,25.11,West,270,3.5,0.0,78,0.00,CLR,,0.05,8861.0,WeatherDisplay:10.37,2013-11-15 06:47:00,
2013-11-14 23:52:00,25.3,19.4,25.10,South,180,3.5,3.5,78,0.00,CLR,,0.05,8861.0,WeatherDisplay:10.37,2013-11-15 06:52:00,
2013-11-14 23:57:00,25.3,19.4,25.11,South,180,1.2,0.0,78,0.00,CLR,,0.05,8861.0,WeatherDisplay:10.37,2013-11-15 06:57:00,